CAPE
713 740 490 602 506 435 258 282 218 131 36 34 37 98 165 153 128 185 250 271 246 205 241 344 487 619 736 837 834 920 754 716 707 931 1134 1115 794 785 792 732 478 670 664 638 554 509 294 224 256 322 399 390 388 345 532 567 632 834 1006 913 676 1040 1095 784 742 862 818 476 155 110 236 792 1035 1250 1143 1684 2822 2974 2757 3306 2783 2874 3162 2749 2953
769 830 653 443 368 356 292 192 114 49 12 14 58 142 116 114 125 157 204 190 240 275 362 459 535 718 796 868 1019 1419 1263 864 864 983 952 1122 1121 1111 1117 683 676 502 470 362 585 550 282 410 228 93 302 255 303 423 265 448 487 415 470 503 472 358 410 692 557 523 648 377 370 212 173 218 709 836 1093 1237 2303 2595 2873 3280 3760 3329 3552 3377 2600
595 864 678 458 530 456 382 255 194 90 21 10 4 0 1 6 27 110 167 162 187 275 356 431 544 736 877 1034 1371 1588 1415 1070 878 886 1038 1153 1149 831 841 992 747 511 267 273 168 162 272 288 190 194 179 194 308 378 401 383 480 377 363 348 315 359 386 800 713 373 269 326 240 126 207 175 273 147 299 732 1601 2807 2425 1797 2879 2794 2660 3042 3277
347 781 830 616 538 470 425 352 169 9 0 0 0 0 1 9 13 17 104 180 229 370 483 651 842 978 1202 1329 1407 1459 1458 1324 1109 789 1068 1038 1079 1148 834 951 762 474 245 261 217 221 190 172 135 194 153 159 306 668 730 494 268 560 350 395 557 425 168 333 669 390 255 125 200 176 188 169 266 376 304 970 1546 2072 2525 2438 3257 2461 2655 2630 3037
553 492 507 502 530 637 534 308 106 36 20 2 0 0 1 1 4 32 104 277 444 483 538 654 973 1280 1425 1400 1350 1428 1192 1154 1248 1296 1244 1211 1046 868 1063 1134 961 304 208 182 70 122 57 20 30 68 234 177 10 377 903 703 470 330 236 334 346 560 455 1024 1130 1238 837 318 206 275 353 299 165 500 343 1231 1550 1398 1554 1723 2096 2428 2768 2571 2268
596 517 298 322 609 550 427 294 88 26 22 8 6 26 18 24 20 4 0 0 2 8 47 195 669 1264 1388 1308 1376 1463 1562 1546 1467 1535 1289 1206 1151 1126 1042 866 484 204 196 126 79 54 22 6 11 32 52 116 100 96 337 749 281 568 460 131 260 355 318 290 655 744 684 523 431 280 298 295 421 438 568 916 672 1258 1428 2026 2162 2476 2464 1718 2252
926 618 320 153 433 463 321 204 106 31 21 14 23 14 19 8 10 18 9 4 1 17 67 145 216 756 1354 1438 1302 1275 1498 1510 1628 1585 1427 1098 846 915 1027 913 400 205 214 98 56 42 18 14 14 17 23 56 55 87 101 566 646 523 448 171 246 440 840 408 499 576 626 475 560 373 330 301 244 356 754 1077 1464 1548 1246 2177 2660 1911 1446 1785 2441
1048 895 618 539 616 438 286 177 73 44 28 22 25 46 82 68 96 67 18 6 0 0 6 114 168 276 386 772 1194 1542 1594 1558 1636 1636 1451 1080 951 878 750 616 339 213 130 46 40 35 8 13 55 46 31 30 32 85 109 175 820 648 464 272 206 329 335 165 280 464 544 444 372 382 402 434 576 642 804 1172 1665 1379 1148 1785 2001 1592 1516 1794 1802
1110 777 770 874 966 636 384 192 45 29 20 58 85 160 179 157 100 54 12 2 0 0 63 169 276 403 498 797 1462 1738 1533 1536 1676 1616 1112 843 824 812 754 679 430 100 104 86 33 17 3 6 10 10 34 114 26 62 57 100 161 533 631 343 236 538 451 180 251 257 385 439 536 344 367 390 228 580 652 1419 1165 947 1190 2317 1709 1695 1740 1598 2312
1256 962 728 872 837 573 392 311 162 82 76 108 226 270 113 80 50 22 12 2 0 21 260 436 484 593 604 578 946 1570 1626 1748 1461 731 321 694 730 806 723 716 656 283 107 67 17 4 0 1 2 6 5 10 82 135 0 18 20 4 258 862 820 558 167 374 436 504 582 117 135 142 159 214 247 265 798 608 926 861 736 1204 1135 878 1183 2238 2178
1427 1037 1070 1052 806 512 372 326 235 158 166 183 246 356 284 138 29 16 24 33 62 324 394 417 420 403 474 782 1098 1555 1638 1784 1302 644 430 445 861 833 678 685 630 350 108 64 39 20 6 3 1 8 17 17 4 0 0 0 10 1 2 54 75 44 454 383 249 127 542 284 195 215 165 275 235 284 214 153 138 270 591 1642 1382 1772 2304 2095 1745
1200 1095 1131 1114 868 537 324 294 258 171 177 298 384 421 273 192 35 36 31 28 34 66 186 394 477 531 748 998 1143 1430 1481 1406 1281 874 551 552 640 922 680 573 619 640 274 176 85 49 48 40 21 4 9 4 3 1 0 0 0 0 0 0 2 19 50 216 111 180 560 167 139 210 136 106 245 243 171 0 174 288 439 273 782 1628 1523 807 1466
941 972 994 953 736 452 379 278 215 198 228 322 369 418 314 196 78 24 5 8 35 201 274 255 390 553 717 785 762 1007 1210 1428 1316 1068 645 640 679 704 737 526 798 722 546 460 180 60 110 106 55 27 3 2 0 0 1 1 0 0 0 0 0 0 15 49 49 120 34 162 107 131 170 173 102 154 125 192 282 198 145 716 1064 1249 1451 1638 1749
644 828 920 739 690 440 297 286 263 248 349 407 450 453 290 141 56 5 0 11 33 109 190 275 327 428 391 470 647 879 1207 948 1140 1101 712 734 743 586 784 526 554 658 732 572 393 176 154 118 118 59 29 10 1 2 2 2 2 1 1 1 0 0 0 15 155 160 88 70 82 67 91 116 75 135 128 207 208 330 382 790 1861 1548 1770 1677 1584
790 849 566 450 554 578 344 326 425 527 605 558 657 699 261 70 36 14 2 3 23 151 252 285 357 415 410 400 435 444 545 1232 1234 1016 709 746 754 388 843 590 658 734 809 620 369 344 214 140 170 133 76 46 32 0 0 1 1 1 1 1 2 0 93 171 33 144 84 60 52 106 149 137 60 86 146 100 176 659 1055 573 1182 1529 1528 1388 1415
648 742 519 417 406 410 405 444 508 867 716 673 736 546 85 28 22 24 150 162 181 238 432 539 780 884 682 510 484 640 509 1019 1241 1050 702 611 754 1010 564 405 500 610 920 832 576 478 278 186 172 138 103 85 50 16 0 0 0 3 1 0 0 3 3 20 25 42 135 189 108 50 28 25 12 67 102 328 770 612 164 1090 1295 1515 1454 1367 1447
734 634 482 320 306 340 446 489 510 528 598 644 696 386 70 26 16 48 204 196 89 52 110 80 292 720 771 701 444 542 765 1324 1132 1098 846 562 484 1093 332 278 458 846 1086 1008 799 406 351 320 200 226 216 168 114 70 23 0 1 3 4 1 3 4 5 6 7 0 0 0 0 0 0 0 0 0 6 70 205 495 504 454 284 948 922 959 858
612 456 329 318 372 483 604 596 444 401 514 661 645 216 62 40 40 274 236 104 138 208 107 10 33 556 632 545 504 602 235 330 924 1098 1076 792 708 1274 581 335 388 851 971 1235 1106 507 452 310 252 280 266 229 145 103 57 18 5 3 4 3 3 5 6 4 87 30 0 0 0 0 0 0 0 0 12 39 34 88 818 496 148 176 390 548 527
412 209 287 322 498 674 579 451 409 385 557 463 351 200 181 130 79 498 335 186 356 657 374 492 573 710 184 102 293 630 760 361 754 1054 1152 999 868 1611 1361 553 642 795 772 1324 1380 924 558 392 252 240 224 192 140 102 46 27 9 2 6 4 3 4 44 8 38 74 60 2 0 0 0 0 2 12 90 26 36 88 119 87 114 110 82 72 263
423 254 250 310 510 683 598 518 533 506 430 412 563 662 485 316 222 208 180 72 203 447 782 496 544 655 691 865 788 295 576 728 570 842 1007 1220 1138 1461 1490 1133 846 796 942 1592 1537 889 627 540 409 276 224 147 132 107 67 40 10 1 6 6 3 1 16 31 24 111 190 130 48 37 15 6 10 42 186 176 55 134 75 77 96 96 76 116 213
392 293 380 724 722 632 537 428 450 408 297 566 1111 672 604 313 280 655 548 269 534 672 702 596 547 637 575 583 463 780 657 158 250 528 1137 1349 1372 1140 1488 1507 1048 684 906 1268 1370 763 732 541 484 406 258 172 128 101 118 56 9 2 2 1 2 1 1 6 4 9 148 222 30 59 82 52 22 20 45 204 151 74 56 53 65 124 94 47 24
306 660 1516 1287 762 611 485 476 456 425 269 1066 748 659 598 485 270 319 554 918 743 764 722 675 758 798 869 830 801 879 605 544 870 964 1026 1302 1247 941 934 1480 1213 1025 1217 1311 898 772 976 795 567 492 310 203 109 138 102 53 1 1 1 0 0 1 3 6 60 115 189 550 320 195 306 348 329 192 35 46 137 150 154 39 30 64 97 60 33
2098 2102 1319 968 884 721 633 536 572 732 1338 860 692 566 744 526 481 508 670 892 918 804 943 828 694 602 489 663 636 566 944 778 522 989 962 922 654 386 318 411 296 179 476 552 686 852 1072 894 796 468 339 182 80 121 84 62 6 2 1 0 0 1 7 8 16 138 104 85 176 810 151 42 2 17 0 1 26 36 124 111 116 97 82 76 159
1947 898 642 706 480 252 366 572 893 1161 1035 891 750 531 614 662 576 804 928 752 833 834 1070 934 713 642 532 657 748 670 754 641 795 722 1280 672 29 0 0 0 0 22 350 654 822 919 948 808 679 332 142 77 60 89 78 86 45 4 1 0 1 2 11 49 80 197 112 509 934 770 757 826 661 698 572 516 330 596 447 330 201 178 146 210 558
957 779 518 475 455 466 569 662 830 819 872 771 665 504 446 451 598 722 632 408 651 826 882 734 635 284 654 736 820 492 456 843 1190 624 469 599 437 330 148 0 0 0 25 398 979 1122 1078 430 58 0 20 15 46 63 113 102 71 25 6 2 8 12 11 10 23 137 92 223 236 380 403 662 442 292 316 570 580 822 801 456 474 504 866 1568 1742
771 654 354 393 484 632 666 586 808 878 707 444 455 469 470 495 431 574 623 544 655 780 951 927 652 545 710 585 628 466 621 736 944 1249 286 145 175 260 0 0 187 210 130 378 258 112 279 246 71 196 177 183 211 231 180 152 102 72 58 45 56 38 12 0 7 7 94 141 168 12 85 171 152 376 517 620 514 134 100 424 478 694 796 1000 1182
812 558 524 462 748 737 419 148 131 367 619 552 415 341 328 382 414 513 472 382 503 745 816 859 917 905 866 639 516 428 481 916 869 478 95 50 158 134 330 350 201 188 180 247 412 356 354 552 514 143 52 121 140 134 117 140 232 177 154 82 58 75 62 52 51 16 16 37 122 112 214 94 48 169 189 221 336 445 618 397 506 545 379 404 418
738 520 517 556 634 632 328 70 155 217 233 232 173 220 547 544 339 225 438 512 687 800 822 785 809 876 609 458 413 557 616 539 242 1 0 0 0 0 9 161 258 340 86 79 79 6 40 396 1028 677 805 376 424 344 275 195 211 218 209 126 62 58 71 55 39 36 49 12 3 16 18 36 52 31 10 6 2 41 190 398 448 406 255 191 194
542 661 545 326 455 223 218 402 364 331 364 444 226 174 618 435 260 369 742 549 538 459 484 454 642 412 279 538 473 466 400 90 6 0 0 0 0 0 0 0 0 0 1 0 0 0 290 92 196 147 147 124 144 179 261 299 220 224 134 163 117 64 46 28 30 23 10 14 6 4 4 4 5 6 62 13 106 84 120 226 237 305 253 420 246
512 205 268 276 242 292 422 369 340 257 99 54 98 268 106 0 0 164 413 348 90 0 0 158 8 47 240 280 5 1 0 0 0 0 0 0 0 0 0 0 0 0 0 0 2 20 194 114 68 6 5 10 15 36 41 70 87 116 176 134 129 109 74 71 75 48 16 6 2 1 2 1 4 4 10 78 118 138 104 108 28 80 100 191 230
327 279 124 214 248 373 236 116 274 498 446 330 259 289 439 0 0 0 32 8 0 0 0 0 0 0 70 104 0 0 0 0 0 0 0 0 0 0 0 0 0 0 0 0 587 84 39 5 0 2 1 0 0 0 0 18 10 13 12 34 63 36 36 77 78 73 44 32 14 4 0 1 2 1 2 4 1 2 4 11 32 102 15 46 98
454 347 299 353 569 304 121 192 192 152 279 384 491 476 326 254 1 11 30 0 0 0 0 0 0 109 126 46 0 0 0 0 0 0 0 0 0 0 0 0 0 0 0 5 3 0 0 0 0 0 3 0 0 0 0 7 18 2 3 25 42 35 6 26 22 101 68 61 53 32 20 4 1 3 17 10 4 0 0 24 24 12 12 16 10
455 288 299 369 174 280 77 227 340 353 398 480 575 494 529 222 5 2 0 0 0 24 107 16 0 0 0 0 0 0 0 0 0 0 0 0 0 0 0 0 0 0 0 0 0 0 0 3 4 2 8 6 0 1 0 2 2 2 6 12 21 10 4 46 52 48 36 31 35 52 71 42 28 14 8 4 8 3 1 7 10 18 18 8 6
368 162 157 270 318 472 470 656 644 676 753 939 980 857 506 385 92 3 4 4 1 22 15 0 0 0 0 0 0 0 0 0 0 0 0 0 0 0 0 2 0 0 0 0 0 0 0 0 6 4 2 1 1 6 8 4 2 1 1 12 40 21 64 76 76 69 43 32 35 26 41 58 56 56 37 36 34 29 27 28 44 32 5 5 8
288 286 25 148 406 784 783 827 563 452 635 810 765 649 593 632 280 12 1 2 32 9 7 1 0 0 0 0 0 0 0 0 0 0 0 0 0 0 0 58 0 0 0 2 1 1 5 47 25 6 3 2 0 4 8 4 2 1 2 3 2 16 7 50 66 78 70 7 0 10 36 26 40 46 95 71 68 61 51 46 43 52 34 21 0
506 605 730 322 423 745 871 567 566 793 868 507 494 367 254 67 14 14 88 68 8 12 15 9 4 0 0 0 0 1 2 0 0 0 0 0 0 0 0 0 0 0 0 0 0 6 10 5 22 16 14 6 0 16 0 0 4 5 2 3 0 2 4 0 31 58 77 92 76 52 17 44 45 44 43 83 73 76 69 64 58 58 54 19 4
749 950 1027 1090 958 993 714 527 699 575 213 134 252 210 90 47 19 22 14 2 4 4 4 6 5 2 3 4 0 0 1 0 0 0 0 0 0 0 0 0 0 0 0 0 0 0 0 0 0 0 4 0 4 8 2 0 0 0 0 0 0 0 0 0 1 3 41 69 98 106 83 38 1 10 15 29 54 60 80 98 92 57 48 32 28
774 974 1151 1228 990 692 679 600 288 55 140 260 366 218 70 13 1 0 0 0 0 0 0 2 0 0 2 4 3 6 12 0 0 0 0 0 0 0 1 0 0 0 0 0 0 0 1 0 0 1 2 1 0 0 0 2 3 0 0 0 5 0 0 1 0 5 2 2 37 69 88 91 78 53 8 12 38 96 146 121 127 118 80 61 68
1042 303 613 464 356 712 639 464 112 140 98 21 14 3 4 2 1 0 0 0 0 0 0 0 0 2 3 3 5 4 6 5 2 3 1 0 0 0 2 2 2 1 0 0 1 0 0 0 0 0 0 0 0 0 0 0 0 2 1 0 0 0 0 0 0 0 0 5 2 13 20 50 62 79 73 74 61 58 78 150 135 124 137 165 179
488 506 201 76 392 378 428 139 64 19 12 1 2 4 4 0 0 0 0 0 0 0 0 0 1 2 1 2 0 2 6 1 1 2 1 0 0 0 2 2 2 0 0 0 0 0 0 0 0 0 0 0 0 0 0 0 0 0 0 1 0 0 0 0 1 2 1 0 0 3 4 1 29 26 41 68 80 83 79 91 171 124 122 114 198
540 417 245 169 239 194 196 78 45 8 6 4 3 2 1 1 0 0 0 0 0 0 1 2 1 1 0 0 2 4 1 0 4 0 0 0 4 0 0 0 0 0 0 0 0 0 0 0 0 0 0 0 0 0 0 0 0 0 1 2 5 0 0 0 0 0 2 3 0 0 1 2 4 3 0 0 40 48 72 79 104 191 216 103 65
338 234 230 88 84 100 27 6 8 9 12 4 3 4 4 2 2 0 0 0 0 1 4 2 1 0 2 1 1 1 2 3 1 0 0 5 5 1 0 0 0 0 0 0 0 0 0 0 0 0 0 0 0 0 0 0 0 0 0 0 0 0 0 0 0 0 0 0 2 2 0 0 0 4 4 1 0 3 3 22 54 84 98 156 110
109 74 23 76 48 52 8 4 4 4 5 9 13 14 14 11 1 0 1 1 1 2 5 4 2 2 4 0 0 0 2 2 3 1 0 2 4 2 1 0 0 0 1 0 0 0 0 0 0 0 0 0 0 0 0 0 0 0 0 0 0 0 0 0 0 0 0 0 0 0 2 0 0 0 1 1 3 0 0 0 0 0 37 22 67
12 22 12 1 18 26 24 36 3 2 4 3 4 2 1 0 0 1 1 3 2 4 5 5 6 2 3 1 4 2 3 2 2 1 1 2 2 0 0 0 0 0 0 0 0 0 0 0 0 0 0 0 0 0 0 0 0 0 0 0 0 0 0 0 0 0 0 0 0 0 0 0 0 0 0 0 0 0 0 0 0 2 2 28 44
5 2 4 1 2 3 4 4 2 1 5 1 1 1 0 1 2 1 0 1 6 6 6 5 2 2 2 4 4 3 2 1 2 5 5 1 0 0 0 0 0 0 0 0 2 0 0 0 0 0 0 0 0 0 0 0 0 0 0 0 0 0 0 0 0 0 0 0 0 0 0 0 0 0 0 0 0 0 0 0 0 0 0 0 0
1 1 0 0 0 0 0 0 1 1 0 0 1 1 0 1 2 4 2 4 6 6 7 6 1 1 1 2 0 0 2 1 2 0 1 0 0 0 0 0 0 0 0 0 0 0 0 0 0 0 0 0 0 0 0 0 0 0 0 0 0 0 0 0 0 0 0 0 0 0 1 0 0 0 0 0 0 0 0 0 0 0 0 0 0
1 1 1 0 0 1 2 0 4 6 8 8 4 2 2 0 3 6 7 4 4 4 2 0 0 0 1 1 0 0 0 0 0 1 0 2 0 1 2 0 0 0 0 0 0 0 0 0 0 0 0 0 0 0 0 0 0 0 0 0 0 0 0 0 0 0 0 0 0 0 0 0 0 0 0 0 0 0 0 0 0 0 0 0 0
0 0 0 0 1 2 3 5 4 4 6 7 4 3 4 3 5 7 5 5 4 2 3 0 0 2 3 1 1 0 2 0 0 2 0 0 0 0 0 0 0 0 0 0 0 0 0 0 0 0 0 0 0 0 0 0 0 0 0 0 0 0 0 0 0 0 0 0 0 0 0 0 0 0 0 0 0 0 0 0 0 0 0 0 0
9 10 9 6 2 1 2 0 0 1 0 2 3 0 0 0 1 3 4 3 1 0 5 4 2 1 0 2 1 1 1 0 0 0 0 0 0 0 0 0 0 0 0 0 0 0 0 0 0 0 0 0 0 0 0 0 0 0 0 0 0 0 0 0 0 0 0 0 0 0 0 0 0 0 0 0 0 0 0 0 0 0 0 0 0
0 0 0 0 0 0 1 0 0 0 0 0 0 1 0 0 0 0 0 1 0 0 2 2 2 0 0 0 0 0 0 0 0 0 0 0 0 0 0 0 0 0 0 0 0 0 0 0 0 0 0 0 0 0 0 0 0 0 0 0 0 0 0 0 0 0 0 0 0 0 0 0 0 0 0 0 0 0 0 0 0 0 0 0 0
0 0 0 0 0 0 0 0 0 0 0 0 0 0 0 0 0 0 1 2 2 2 1 0 0 0 0 0 0 0 0 0 0 0 0 0 0 0 0 0 0 0 0 0 0 0 0 0 0 0 0 0 0 0 0 0 0 0 0 0 0 0 0 0 0 0 0 0 0 0 0 0 0 0 0 0 0 0 0 0 0 0 0 0 0
Wind_Speed
34 35 35 36 35 35 36 37 35 35 nan nan nan nan 36 36 35 35 35 36 37 37 36 35 32 29 28 28 27 28 29 29 30 31 33 34 34 33 30 29 28 30 30 29 28 28 28 30 32 32 33 33 31 31 33 35 35 36 38 37 31 27 31 36 36 36 41 40 37 37 39 40 36 38 37 36 36 34 32 35 37 35 35 34 35
35 35 36 36 35 36 37 36 35 nan nan nan nan 35 36 36 36 35 34 36 37 37 36 35 33 30 29 29 28 29 29 30 31 33 33 33 33 35 34 33 27 26 29 29 29 29 29 29 30 nan 33 32 32 32 31 34 36 34 35 38 36 32 31 37 36 37 40 42 37 35 37 35 35 40 41 35 35 36 32 32 34 35 37 38 36
35 36 37 37 37 37 37 37 36 nan nan nan nan nan nan nan nan 35 34 35 36 38 37 35 33 31 30 30 30 31 31 33 35 35 35 34 33 34 32 30 26 22 24 25 25 27 27 29 30 32 35 33 33 34 32 31 36 36 33 35 35 34 33 37 39 37 38 40 39 38 38 35 33 34 36 37 38 34 33 32 31 36 37 36 38
35 37 38 38 38 38 38 38 36 nan nan nan nan nan nan nan nan nan 35 35 36 37 36 35 33 32 31 31 32 34 35 36 36 37 36 35 33 36 33 28 24 21 21 21 21 24 25 27 29 31 33 33 33 36 38 37 36 38 35 36 37 36 32 35 38 40 39 38 41 40 38 36 36 37 40 42 41 38 33 32 30 33 36 37 39
34 35 36 37 38 38 38 38 37 nan nan nan nan nan nan nan nan nan 35 35 36 36 36 35 33 33 33 33 33 35 36 37 38 38 37 35 33 31 29 28 24 21 22 21 nan 21 nan nan nan nan 31 34 nan 34 38 37 37 38 37 36 38 37 35 39 41 41 40 38 39 42 40 38 38 39 40 43 44 41 34 32 32 32 33 35 38
35 35 36 37 38 38 39 39 nan nan nan nan nan nan nan nan nan nan nan nan nan nan nan 35 33 32 33 34 35 36 38 40 40 39 36 34 32 30 29 26 23 22 23 23 nan nan nan nan nan nan nan 31 35 nan 34 35 35 36 35 34 36 38 36 36 42 40 40 40 40 39 41 39 38 39 40 40 38 38 34 31 30 30 32 32 36
35 35 36 36 38 39 39 39 39 nan nan nan nan nan nan nan nan nan nan nan nan nan nan 32 33 33 33 35 36 36 38 40 41 39 36 33 30 29 28 26 24 25 25 nan nan nan nan nan nan nan nan nan nan nan 32 34 38 35 35 33 33 34 36 36 39 39 40 39 39 39 40 39 38 38 40 40 40 40 37 36 35 33 29 29 34
37 38 38 38 39 39 39 40 nan nan nan nan nan nan nan nan nan nan nan nan nan nan nan 32 32 34 35 36 37 38 39 40 39 38 34 31 30 28 27 25 24 25 25 nan nan nan nan nan nan nan nan nan nan nan 38 34 37 36 37 34 32 33 34 33 36 39 39 37 38 40 41 40 41 41 43 42 40 38 36 35 35 36 34 31 32
39 39 40 40 41 40 41 41 nan nan nan nan nan 41 42 42 40 nan nan nan nan nan nan 32 33 34 35 36 37 39 39 39 38 37 32 29 29 27 25 24 22 24 24 nan nan nan nan nan nan nan nan 28 nan nan nan nan 43 43 40 36 33 33 37 34 35 37 39 40 39 39 40 40 38 41 41 39 35 35 36 36 35 35 35 31 32
40 41 41 42 42 42 42 42 42 nan nan 41 41 42 42 nan nan nan nan nan nan nan 33 33 34 35 36 38 38 40 39 38 41 41 33 29 27 26 24 23 23 23 23 nan nan nan nan nan nan nan nan nan nan 44 nan nan nan nan 37 35 32 36 36 32 35 38 38 36 37 37 37 36 37 36 37 36 38 36 34 36 33 33 32 32 35
43 43 43 43 42 42 43 43 42 41 41 42 42 43 43 42 nan nan nan nan nan 36 35 35 35 36 36 37 38 39 38 37 42 38 34 29 27 24 23 22 23 24 23 nan nan nan nan nan nan nan nan nan nan nan nan nan nan nan nan nan nan nan 37 36 35 36 40 38 39 39 39 37 35 35 35 36 38 36 36 38 36 35 35 33 31
44 45 44 44 43 43 43 42 41 41 41 42 43 43 44 43 nan nan nan nan nan nan 35 36 36 37 38 38 37 38 35 37 40 36 31 28 27 24 22 22 24 24 24 22 nan nan nan nan nan nan nan nan nan nan nan nan nan nan nan nan nan nan nan 33 34 35 35 34 36 36 37 36 37 36 37 nan 39 38 37 37 36 37 35 29 27
46 46 45 44 44 43 42 41 41 41 42 42 43 43 44 43 nan nan nan nan nan 37 36 36 38 38 38 37 35 34 30 39 38 33 29 26 25 24 22 22 23 23 22 21 19 nan 18 17 nan nan nan nan nan nan nan nan nan nan nan nan nan nan nan nan nan 29 nan 32 35 35 35 37 35 37 39 40 42 38 36 34 36 35 35 31 30
46 47 46 45 44 43 42 41 41 42 43 43 44 44 44 42 nan nan nan nan nan 37 36 37 38 38 37 36 34 32 27 36 31 32 28 26 25 23 22 21 23 23 21 19 17 17 17 16 19 nan nan nan nan nan nan nan nan nan nan nan nan nan nan nan 23 24 nan nan nan nan nan 36 nan 37 37 40 39 37 37 37 36 37 37 33 32
48 47 46 46 45 44 42 42 42 43 43 45 46 46 44 nan nan nan nan nan nan 37 37 36 36 36 35 33 29 28 28 35 29 29 28 25 23 23 22 22 22 23 23 19 16 17 17 14 16 22 nan nan nan nan nan nan nan nan nan nan nan nan nan 28 nan 33 nan nan nan 28 31 32 nan nan 37 nan 35 36 39 38 39 41 41 39 40
49 48 47 46 45 44 43 43 43 43 44 46 46 45 nan nan nan nan 39 37 37 36 35 33 32 32 31 28 26 25 25 35 29 29 28 25 24 24 21 22 22 22 23 20 16 15 15 12 14 20 24 nan nan nan nan nan nan nan nan nan nan nan nan nan nan nan 26 25 24 nan nan nan nan nan 36 37 39 37 39 43 49 48 48 47 40
50 49 47 46 45 44 44 43 42 43 43 44 44 44 nan nan nan nan 39 37 nan nan 34 nan 30 31 27 20 16 19 22 32 31 30 29 27 25 22 20 21 22 22 22 23 18 12 12 12 10 19 24 26 29 nan nan nan nan nan nan nan nan nan nan nan nan nan nan nan nan nan nan nan nan nan nan nan 37 39 40 41 40 44 44 44 42
51 48 46 45 45 44 44 43 42 43 44 43 43 42 nan nan nan 42 39 35 33 34 33 nan nan 29 27 22 20 16 15 22 34 31 30 29 26 22 21 21 22 22 23 25 24 15 12 11 7 14 24 26 26 31 nan nan nan nan nan nan nan nan nan nan nan nan nan nan nan nan nan nan nan nan nan nan nan nan 40 40 39 39 39 43 44
49 47 46 44 44 45 44 43 42 43 43 42 42 41 44 44 nan 43 42 37 35 34 35 29 25 22 18 16 16 16 17 17 31 33 32 29 28 25 23 21 21 22 24 27 27 21 14 12 9 7 17 23 24 26 nan nan nan nan nan nan nan nan nan nan nan nan nan nan nan nan nan nan nan nan nan nan nan nan 35 nan 37 39 nan nan 41
48 46 43 43 45 45 45 44 43 42 42 41 40 47 51 48 45 43 41 nan 37 35 36 31 26 23 20 17 15 12 14 16 25 34 30 29 29 26 24 21 20 21 24 27 27 21 17 13 12 6 7 17 23 25 nan nan nan nan nan nan nan nan nan nan nan 22 24 26 nan nan nan nan nan nan 34 37 nan 33 nan nan nan nan nan 40 42
46 44 42 44 45 46 45 44 43 43 40 38 46 50 51 48 48 48 44 40 37 35 33 31 27 23 20 17 14 15 16 14 17 30 30 29 27 29 24 22 20 20 23 26 26 23 19 15 11 8 4 7 16 23 25 nan nan nan nan nan nan nan nan nan nan nan 21 26 nan nan nan nan nan nan nan 32 35 nan nan nan nan 35 nan nan nan
46 46 47 47 45 44 43 43 43 44 45 44 46 52 52 49 47 45 42 39 36 33 32 30 27 22 20 19 18 13 12 9 16 28 29 26 26 28 25 22 21 20 21 25 25 24 22 19 14 8 7 8 7 17 23 nan nan nan nan nan nan nan nan nan nan 23 21 27 28 29 32 34 33 31 nan nan 31 34 34 nan nan nan nan nan nan
52 52 49 47 45 44 43 43 43 44 47 48 49 49 50 48 45 43 39 37 34 32 31 29 26 22 19 18 16 14 16 18 17 19 24 26 22 23 23 21 16 18 22 23 24 24 23 19 16 12 3 11 nan 9 nan nan nan nan nan nan nan nan nan nan nan 24 25 nan 26 31 32 nan nan nan nan nan nan nan 32 32 33 nan nan nan 36
54 51 47 46 45 43 43 43 44 45 46 48 50 49 48 45 42 39 36 33 32 31 31 28 26 23 19 18 17 15 17 20 22 21 21 22 nan nan nan nan nan nan 22 24 25 25 24 20 16 9 4 nan nan nan nan nan nan nan nan nan nan nan nan nan nan 39 30 29 30 33 34 35 35 35 34 33 32 36 37 37 37 37 36 36 38
52 49 46 44 44 43 43 43 44 45 46 48 48 47 46 44 40 38 35 32 30 30 29 27 25 21 20 18 17 14 16 20 25 24 21 19 18 18 18 nan nan nan nan 25 26 25 22 17 nan nan nan nan nan nan 9 19 nan nan nan nan nan nan nan nan nan 45 nan 47 42 39 39 32 31 32 34 35 35 38 40 39 38 40 41 41 40
50 47 45 44 44 44 43 44 44 44 44 45 46 46 45 44 40 38 35 32 30 28 26 26 22 20 20 19 17 17 17 23 20 23 20 17 14 19 nan nan 16 21 25 24 23 21 22 22 nan 17 14 11 6 1 7 15 20 nan nan nan nan nan nan nan nan nan nan 48 44 nan nan 48 42 37 37 35 34 36 36 38 38 41 44 42 44
49 46 45 46 46 45 45 43 42 44 44 44 44 44 43 42 40 38 34 31 30 28 23 20 21 20 21 22 20 17 19 25 23 22 nan nan 16 16 16 17 19 18 18 22 26 25 21 23 24 20 nan 14 10 4 3 13 17 16 15 nan nan nan nan nan nan nan nan nan 45 42 43 nan nan 44 42 41 41 41 40 38 38 41 41 43 43
47 46 46 45 45 46 44 nan 43 41 42 42 40 41 43 41 35 33 32 31 30 26 21 19 20 21 19 20 19 18 19 24 25 nan nan nan nan nan nan 16 16 17 nan nan nan nan nan 24 28 25 21 16 12 8 4 5 11 16 17 19 nan nan nan nan nan nan nan nan nan nan nan nan nan nan nan nan nan nan 39 39 40 41 40 41 40
46 45 46 44 45 43 40 41 41 41 41 42 41 40 39 37 35 35 37 34 33 26 20 18 20 20 18 19 19 19 21 nan nan nan nan nan nan nan nan nan nan nan nan nan nan nan 22 nan 24 21 19 15 12 8 7 5 7 12 17 17 18 nan nan nan nan nan nan nan nan nan nan nan nan nan nan nan 41 nan 41 41 42 42 41 40 39
44 41 43 42 40 41 40 37 38 38 nan nan nan 44 49 nan nan 33 37 38 nan nan nan 22 nan nan 17 19 nan nan nan nan nan nan nan nan nan nan nan nan nan nan nan nan nan nan 19 20 nan nan nan nan nan nan nan nan nan 9 11 16 18 18 nan nan nan nan nan nan nan nan nan nan nan nan nan nan 45 46 46 45 nan nan 45 44 45
44 39 40 38 39 37 34 33 36 38 37 37 38 36 41 nan nan nan nan nan nan nan nan nan nan nan nan 18 nan nan nan nan nan nan nan nan nan nan nan nan nan nan nan nan 19 nan nan nan nan nan nan nan nan nan nan nan nan nan nan nan nan nan nan nan nan nan nan nan nan nan nan nan nan nan nan nan nan nan nan nan nan 48 nan nan nan
42 40 38 38 42 36 34 35 35 35 36 36 35 36 36 39 nan nan nan nan nan nan nan nan nan 22 24 nan nan nan nan nan nan nan nan nan nan nan nan nan nan nan nan nan nan nan nan nan nan nan nan nan nan nan nan nan nan nan nan nan nan nan nan nan nan 34 nan nan nan nan nan nan nan nan nan nan nan nan nan nan nan nan nan nan nan
39 37 38 39 37 37 nan 34 34 34 34 33 33 34 37 37 nan nan nan nan nan nan 19 nan nan nan nan nan nan nan nan nan nan nan nan nan nan nan nan nan nan nan nan nan nan nan nan nan nan nan nan nan nan nan nan nan nan nan nan nan nan nan nan nan nan nan nan nan nan nan nan nan nan nan nan nan nan nan nan nan nan nan nan nan nan
39 38 37 38 36 34 32 32 32 32 33 33 32 33 35 35 nan nan nan nan nan nan nan nan nan nan nan nan nan nan nan nan nan nan nan nan nan nan nan nan nan nan nan nan nan nan nan nan nan nan nan nan nan nan nan nan nan nan nan nan nan nan nan nan nan nan nan nan nan nan nan nan nan nan nan nan nan nan nan nan nan nan nan nan nan
36 38 nan 34 33 32 30 31 31 30 32 34 32 31 35 34 28 nan nan nan nan nan nan nan nan nan nan nan nan nan nan nan nan nan nan nan nan nan nan nan nan nan nan nan nan nan nan nan nan nan nan nan nan nan nan nan nan nan nan nan nan nan nan nan nan nan nan nan nan nan nan nan nan nan nan nan nan nan nan nan nan nan nan nan nan
33 33 37 35 31 30 31 31 31 31 32 33 32 32 33 nan nan nan nan nan nan nan nan nan nan nan nan nan nan nan nan nan nan nan nan nan nan nan nan nan nan nan nan nan nan nan nan nan nan nan nan nan nan nan nan nan nan nan nan nan nan nan nan nan nan nan nan nan nan nan nan nan nan nan nan nan nan nan nan nan nan nan nan nan nan
32 33 34 34 32 32 32 32 33 33 33 33 34 34 nan nan nan nan nan nan nan nan nan nan nan nan nan nan nan nan nan nan nan nan nan nan nan nan nan nan nan nan nan nan nan nan nan nan nan nan nan nan nan nan nan nan nan nan nan nan nan nan nan nan nan nan nan nan nan 16 nan nan nan nan nan nan nan nan nan nan nan nan nan nan nan
30 31 32 35 35 34 34 34 36 nan 34 34 34 35 nan nan nan nan nan nan nan nan nan nan nan nan nan nan nan nan nan nan nan nan nan nan nan nan nan nan nan nan nan nan nan nan nan nan nan nan nan nan nan nan nan nan nan nan nan nan nan nan nan nan nan nan nan nan nan nan nan nan nan nan nan nan nan nan 25 26 28 30 nan nan nan
34 37 36 37 34 34 35 36 37 36 nan nan nan nan nan nan nan nan nan nan nan nan nan nan nan nan nan nan nan nan nan nan nan nan nan nan nan nan nan nan nan nan nan nan nan nan nan nan nan nan nan nan nan nan nan nan nan nan nan nan nan nan nan nan nan nan nan nan nan nan nan nan nan nan nan nan nan nan nan 23 25 26 28 31 33
33 34 36 nan 34 35 35 36 nan nan nan nan nan nan nan nan nan nan nan nan nan nan nan nan nan nan nan nan nan nan nan nan nan nan nan nan nan nan nan nan nan nan nan nan nan nan nan nan nan nan nan nan nan nan nan nan nan nan nan nan nan nan nan nan nan nan nan nan nan nan nan nan nan nan nan nan nan nan nan nan 21 23 24 25 27
33 34 35 32 35 35 36 nan nan nan nan nan nan nan nan nan nan nan nan nan nan nan nan nan nan nan nan nan nan nan nan nan nan nan nan nan nan nan nan nan nan nan nan nan nan nan nan nan nan nan nan nan nan nan nan nan nan nan nan nan nan nan nan nan nan nan nan nan nan nan nan nan nan nan nan nan nan nan nan nan 17 18 19 20 nan
34 34 33 nan nan 33 nan nan nan nan nan nan nan nan nan nan nan nan nan nan nan nan nan nan nan nan nan nan nan nan nan nan nan nan nan nan nan nan nan nan nan nan nan nan nan nan nan nan nan nan nan nan nan nan nan nan nan nan nan nan nan nan nan nan nan nan nan nan nan nan nan nan nan nan nan nan nan nan nan nan nan nan nan 18 20
33 nan nan nan nan nan nan nan nan nan nan nan nan nan nan nan nan nan nan nan nan nan nan nan nan nan nan nan nan nan nan nan nan nan nan nan nan nan nan nan nan nan nan nan nan nan nan nan nan nan nan nan nan nan nan nan nan nan nan nan nan nan nan nan nan nan nan nan nan nan nan nan nan nan nan nan nan nan nan nan nan nan nan nan nan
nan nan nan nan nan nan nan nan nan nan nan nan nan nan nan nan nan nan nan nan nan nan nan nan nan nan nan nan nan nan nan nan nan nan nan nan nan nan nan nan nan nan nan nan nan nan nan nan nan nan nan nan nan nan nan nan nan nan nan nan nan nan nan nan nan nan nan nan nan nan nan nan nan nan nan nan nan nan nan nan nan nan nan nan nan
nan nan nan nan nan nan nan nan nan nan nan nan nan nan nan nan nan nan nan nan nan nan nan nan nan nan nan nan nan nan nan nan nan nan nan nan nan nan nan nan nan nan nan nan nan nan nan nan nan nan nan nan nan nan nan nan nan nan nan nan nan nan nan nan nan nan nan nan nan nan nan nan nan nan nan nan nan nan nan nan nan nan nan nan nan
nan nan nan nan nan nan nan nan nan nan nan nan nan nan nan nan nan nan nan nan nan nan nan nan nan nan nan nan nan nan nan nan nan nan nan nan nan nan nan nan nan nan nan nan nan nan nan nan nan nan nan nan nan nan nan nan nan nan nan nan nan nan nan nan nan nan nan nan nan nan nan nan nan nan nan nan nan nan nan nan nan nan nan nan nan
nan nan nan nan nan nan nan nan nan nan nan nan nan nan nan nan nan nan nan nan nan nan nan nan nan nan nan nan nan nan nan nan nan nan nan nan nan nan nan nan nan nan nan nan nan nan nan nan nan nan nan nan nan nan nan nan nan nan nan nan nan nan nan nan nan nan nan nan nan nan nan nan nan nan nan nan nan nan nan nan nan nan nan nan nan
nan nan nan nan nan nan nan nan nan nan nan nan nan nan nan nan nan nan nan nan nan nan nan nan nan nan nan nan nan nan nan nan nan nan nan nan nan nan nan nan nan nan nan nan nan nan nan nan nan nan nan nan nan nan nan nan nan nan nan nan nan nan nan nan nan nan nan nan nan nan nan nan nan nan nan nan nan nan nan nan nan nan nan nan nan
nan nan nan nan nan nan nan nan nan nan nan nan nan nan nan nan nan nan nan nan nan nan nan nan nan nan nan nan nan nan nan nan nan nan nan nan nan nan nan nan nan nan nan nan nan nan nan nan nan nan nan nan nan nan nan nan nan nan nan nan nan nan nan nan nan nan nan nan nan nan nan nan nan nan nan nan nan nan nan nan nan nan nan nan nan
nan nan nan nan nan nan nan nan nan nan nan nan nan nan nan nan nan nan nan nan nan nan nan nan nan nan nan nan nan nan nan nan nan nan nan nan nan nan nan nan nan nan nan nan nan nan nan nan nan nan nan nan nan nan nan nan nan nan nan nan nan nan nan nan nan nan nan nan nan nan nan nan nan nan nan nan nan nan nan nan nan nan nan nan nan
nan nan nan nan nan nan nan nan nan nan nan nan nan nan nan nan nan nan nan nan nan nan nan nan nan nan nan nan nan nan nan nan nan nan nan nan nan nan nan nan nan nan nan nan nan nan nan nan nan nan nan nan nan nan nan nan nan nan nan nan nan nan nan nan nan nan nan nan nan nan nan nan nan nan nan nan nan nan nan nan nan nan nan nan nan
Wind_Direction
317 316 314 313 312 313 313 313 313 314 nan nan nan nan 321 320 317 314 312 311 311 311 314 316 319 318 316 314 311 309 306 305 302 303 307 307 308 307 300 286 279 276 276 273 269 261 249 243 244 247 247 248 248 246 248 245 239 236 237 235 235 240 244 241 230 218 223 231 230 229 226 230 231 242 243 248 252 248 240 240 241 240 240 239 241
315 314 314 314 313 313 314 313 313 nan nan nan nan 320 320 320 318 315 314 312 312 313 315 317 318 318 318 317 315 312 308 306 304 303 304 304 304 302 295 290 283 276 271 268 267 266 255 245 237 nan 243 246 246 249 246 243 242 236 234 237 237 233 241 241 234 223 219 230 240 237 230 231 233 237 239 238 247 248 242 238 242 240 240 240 238
312 313 314 315 315 314 315 314 314 nan nan nan nan nan nan nan nan 317 314 312 313 314 316 318 319 319 319 318 315 311 310 306 304 303 304 304 302 296 294 293 291 279 269 269 265 262 257 249 240 237 240 241 244 246 246 242 241 238 233 232 237 239 240 242 236 229 223 229 239 240 237 238 239 238 240 238 239 241 239 235 237 240 241 243 241
312 314 315 317 316 315 315 315 315 nan nan nan nan nan nan nan nan nan 315 313 313 315 317 319 321 321 320 319 316 313 311 308 306 304 304 303 300 298 300 300 294 283 272 269 264 264 256 249 245 238 235 234 236 241 245 242 240 238 234 233 232 236 240 239 236 231 226 227 238 240 239 237 241 242 240 238 240 236 229 234 236 239 243 244 244
311 312 315 317 317 315 315 315 316 nan nan nan nan nan nan nan nan nan 314 314 314 315 317 318 321 323 320 319 316 313 311 310 308 306 305 304 302 299 299 299 295 281 275 270 nan 270 nan nan nan nan 234 232 nan 235 241 240 237 234 233 233 232 237 241 238 236 236 231 228 232 237 237 235 238 244 245 241 241 240 235 235 231 231 241 245 246
310 312 314 316 316 316 315 316 nan nan nan nan nan nan nan nan nan nan nan nan nan nan nan 317 318 321 321 319 317 315 313 311 309 309 308 306 304 300 299 299 291 281 277 276 nan nan nan nan nan nan nan 230 225 nan 231 235 234 233 232 231 232 232 233 234 236 235 233 231 231 233 237 237 239 243 245 243 238 238 238 238 235 233 233 240 247
310 312 315 315 316 316 316 316 315 nan nan nan nan nan nan nan nan nan nan nan nan nan nan 316 317 318 319 318 317 315 314 312 311 312 311 308 304 303 302 300 293 288 286 nan nan nan nan nan nan nan nan nan nan nan 224 231 236 230 229 230 232 230 233 235 235 235 234 232 232 233 232 235 239 240 243 242 239 236 234 238 240 239 235 237 245
311 314 316 316 317 317 317 316 nan nan nan nan nan nan nan nan nan nan nan nan nan nan nan 314 313 314 315 316 316 315 313 313 312 311 310 307 304 303 303 300 296 294 287 nan nan nan nan nan nan nan nan nan nan nan 217 224 232 227 226 231 231 230 233 234 233 233 233 232 231 233 233 232 236 239 238 239 241 239 239 239 238 238 238 233 236
313 316 317 318 318 318 317 317 nan nan nan nan nan 317 314 313 316 nan nan nan nan nan nan 311 311 313 313 313 315 314 312 311 311 308 306 305 302 303 305 305 300 295 290 nan nan nan nan nan nan nan nan 211 nan nan nan nan 219 219 225 226 227 232 235 232 233 232 232 232 231 232 232 230 233 238 241 243 243 240 241 238 232 231 235 234 235
316 317 317 318 318 318 318 318 317 nan nan 315 316 316 313 nan nan nan nan nan nan nan 310 309 311 311 310 310 313 310 310 310 306 305 307 304 301 305 308 308 307 298 290 nan nan nan nan nan nan nan nan nan nan 209 nan nan nan nan 214 221 227 231 230 235 236 234 232 230 229 230 230 229 232 236 239 242 241 236 234 239 234 233 231 231 233
317 317 318 319 318 317 317 317 316 315 314 316 318 316 314 317 nan nan nan nan nan 310 311 310 308 307 307 308 307 307 307 308 308 310 311 314 310 307 311 313 311 305 295 nan nan nan nan nan nan nan nan nan nan nan nan nan nan nan nan nan nan nan 233 234 234 233 233 231 230 231 232 230 230 234 235 237 240 237 233 237 239 239 238 235 234
317 317 318 318 318 317 317 316 315 314 315 318 319 318 317 317 nan nan nan nan nan nan 309 309 309 307 307 306 305 305 306 307 310 310 312 313 313 313 317 317 316 312 302 289 nan nan nan nan nan nan nan nan nan nan nan nan nan nan nan nan nan nan nan 237 234 233 236 232 229 230 230 232 234 234 233 nan 238 239 237 235 240 241 236 237 235
316 316 317 317 317 316 315 315 314 315 316 318 319 319 316 316 nan nan nan nan nan 310 310 310 308 307 307 307 305 304 303 304 310 309 312 317 316 320 322 321 321 315 304 296 284 nan 278 269 nan nan nan nan nan nan nan nan nan nan nan nan nan nan nan nan nan 236 nan 234 232 231 232 231 233 233 232 233 236 236 240 240 244 240 237 234 234
314 316 316 316 316 315 315 315 316 317 318 319 320 319 316 316 nan nan nan nan nan 312 311 310 310 309 309 309 308 304 302 296 308 309 315 318 318 325 325 325 325 319 308 297 287 285 293 275 250 nan nan nan nan nan nan nan nan nan nan nan nan nan nan nan 250 255 nan nan nan nan nan 234 nan 232 232 234 236 237 242 239 241 240 235 232 234
315 316 317 316 316 316 316 316 317 317 318 319 320 319 317 nan nan nan nan nan nan 312 312 311 310 310 309 309 308 305 299 305 315 315 316 317 322 326 327 327 327 323 315 304 295 304 312 297 262 242 nan nan nan nan nan nan nan nan nan nan nan nan nan 242 nan 250 nan nan nan 233 231 232 nan nan 233 nan 238 240 242 239 238 238 235 229 227
316 318 318 316 316 316 316 315 316 317 318 320 320 318 nan nan nan nan 313 313 311 312 313 312 311 312 313 314 314 310 301 314 320 319 317 321 323 322 324 326 331 329 317 309 306 316 327 312 267 248 241 nan nan nan nan nan nan nan nan nan nan nan nan nan nan nan 250 246 238 nan nan nan nan nan 230 231 234 237 241 241 241 237 233 226 224
317 318 317 316 315 315 315 314 314 316 316 318 319 318 nan nan nan nan 314 314 nan nan 309 nan 303 297 293 296 301 309 309 315 321 319 319 323 320 318 320 324 328 331 322 313 313 327 338 329 275 243 239 234 224 nan nan nan nan nan nan nan nan nan nan nan nan nan nan nan nan nan nan nan nan nan nan nan 227 233 239 241 242 242 234 227 223
317 317 316 315 314 313 313 313 313 314 316 318 319 317 nan nan nan 313 312 311 313 309 302 nan nan 304 307 301 300 304 304 306 318 319 322 326 324 319 318 322 327 329 325 321 319 326 347 11 332 246 230 228 221 216 nan nan nan nan nan nan nan nan nan nan nan nan nan nan nan nan nan nan nan nan nan nan nan nan 238 238 241 239 233 228 224
317 316 315 314 312 311 311 312 313 314 316 317 316 315 312 310 nan 313 312 312 304 298 296 298 296 296 290 285 289 297 305 305 315 319 323 327 323 320 321 319 323 325 324 324 323 325 334 347 4 280 235 222 214 214 nan nan nan nan nan nan nan nan nan nan nan nan nan nan nan nan nan nan nan nan nan nan nan nan 244 nan 237 236 nan nan 221
316 315 314 312 311 309 310 311 313 314 315 317 313 307 310 314 315 315 315 nan 309 300 296 295 292 291 295 293 290 289 296 313 309 320 324 327 328 321 319 319 320 321 321 322 324 327 327 330 345 341 221 205 210 209 nan nan nan nan nan nan nan nan nan nan nan 241 246 246 nan nan nan nan nan nan 236 241 nan 245 nan nan nan nan nan 220 217
315 315 314 312 310 310 311 312 314 314 312 311 309 310 310 314 316 316 319 318 312 303 297 292 290 292 294 293 293 300 310 303 301 316 323 326 327 324 320 323 323 320 319 322 328 332 328 324 338 3 70 172 201 205 206 nan nan nan nan nan nan nan nan nan nan nan 240 244 nan nan nan nan nan nan nan 244 243 nan nan nan nan 240 nan nan nan
315 314 312 310 309 309 311 313 315 314 315 315 314 311 315 317 317 319 319 316 311 303 298 292 290 292 297 297 302 297 289 306 309 308 318 322 325 326 324 326 326 320 320 325 330 335 333 327 329 348 69 100 173 199 194 nan nan nan nan nan nan nan nan nan nan 237 240 240 241 243 243 243 243 243 nan nan 250 251 247 nan nan nan nan nan nan
311 310 309 309 309 310 312 315 315 315 315 315 315 314 316 319 319 319 319 316 311 304 297 289 283 281 285 288 282 289 301 296 308 302 307 311 316 320 330 333 331 326 331 332 333 339 338 333 334 332 60 100 nan 174 nan nan nan nan nan nan nan nan nan nan nan 235 233 nan 239 242 244 nan nan nan nan nan nan nan 250 247 245 nan nan nan 224
307 308 309 310 311 312 314 314 314 314 315 315 315 316 317 317 318 317 317 314 310 304 297 288 282 283 287 282 278 276 282 293 298 303 302 306 nan nan nan nan nan nan 332 336 338 342 345 342 330 311 52 nan nan nan nan nan nan nan nan nan nan nan nan nan nan 220 223 231 230 234 237 239 240 243 246 249 250 250 248 244 240 238 237 232 229
307 309 312 312 312 313 312 312 311 312 313 315 316 316 317 317 318 317 315 312 308 304 299 288 277 275 278 276 277 278 291 305 292 294 301 315 327 333 330 nan nan nan nan 339 343 344 345 349 nan nan nan nan nan nan 167 182 nan nan nan nan nan nan nan nan nan 218 nan 217 217 223 224 230 238 239 239 243 242 243 244 241 241 239 235 234 232
311 313 313 311 311 311 310 309 309 309 312 315 316 316 316 318 319 315 312 307 304 303 299 290 284 279 271 273 278 289 285 275 283 289 284 289 303 315 nan nan 344 340 342 344 354 3 7 3 nan 2 359 360 8 22 183 183 182 nan nan nan nan nan nan nan nan nan nan 217 214 nan nan 223 224 235 237 240 240 239 237 238 238 239 236 234 234
313 311 310 308 307 306 306 307 308 311 315 315 315 316 317 319 317 313 309 306 301 298 294 282 273 272 273 267 269 270 268 281 285 281 nan nan 291 291 304 313 324 333 330 327 335 338 344 349 346 350 nan 6 6 3 156 172 191 196 186 nan nan nan nan nan nan nan nan nan 209 212 218 nan nan 223 225 228 230 230 233 236 236 234 237 235 233
311 310 308 306 306 306 308 nan 312 313 313 313 313 314 318 318 315 309 305 302 297 293 287 276 268 268 264 268 266 264 265 268 271 nan nan nan nan nan nan 311 312 311 nan nan nan nan nan 349 349 347 341 338 336 321 276 207 189 197 198 183 nan nan nan nan nan nan nan nan nan nan nan nan nan nan nan nan nan nan 227 232 230 233 233 236 233
304 303 303 306 307 308 310 313 313 312 311 313 315 315 313 314 310 305 292 286 282 279 274 269 270 265 259 256 257 263 265 nan nan nan nan nan nan nan nan nan nan nan nan nan nan nan 339 nan 326 333 332 327 332 323 302 260 201 195 200 199 191 nan nan nan nan nan nan nan nan nan nan nan nan nan nan nan 215 nan 217 227 231 232 232 233 234
303 307 306 305 309 310 310 310 309 309 nan nan nan 310 300 nan nan 301 295 280 nan nan nan 261 nan nan 261 263 nan nan nan nan nan nan nan nan nan nan nan nan nan nan nan nan nan nan 323 313 nan nan nan nan nan nan nan nan nan 200 191 196 207 207 nan nan nan nan nan nan nan nan nan nan nan nan nan nan 213 213 213 217 nan nan 227 229 229
304 303 306 308 301 302 305 307 308 310 311 312 313 315 314 nan nan nan nan nan nan nan nan nan nan nan nan 265 nan nan nan nan nan nan nan nan nan nan nan nan nan nan nan nan 321 nan nan nan nan nan nan nan nan nan nan nan nan nan nan nan nan nan nan nan nan nan nan nan nan nan nan nan nan nan nan nan nan nan nan nan nan 221 nan nan nan
307 306 304 304 301 306 307 307 307 308 310 310 313 315 313 311 nan nan nan nan nan nan nan nan nan 262 254 nan nan nan nan nan nan nan nan nan nan nan nan nan nan nan nan nan nan nan nan nan nan nan nan nan nan nan nan nan nan nan nan nan nan nan nan nan nan 203 nan nan nan nan nan nan nan nan nan nan nan nan nan nan nan nan nan nan nan
304 302 301 303 305 307 nan 306 306 306 307 308 311 312 310 315 nan nan nan nan nan nan 272 nan nan nan nan nan nan nan nan nan nan nan nan nan nan nan nan nan nan nan nan nan nan nan nan nan nan nan nan nan nan nan nan nan nan nan nan nan nan nan nan nan nan nan nan nan nan nan nan nan nan nan nan nan nan nan nan nan nan nan nan nan nan
299 299 302 305 304 304 304 304 305 306 305 305 306 308 309 316 nan nan nan nan nan nan nan nan nan nan nan nan nan nan nan nan nan nan nan nan nan nan nan nan nan nan nan nan nan nan nan nan nan nan nan nan nan nan nan nan nan nan nan nan nan nan nan nan nan nan nan nan nan nan nan nan nan nan nan nan nan nan nan nan nan nan nan nan nan
301 302 nan 303 304 303 302 301 302 302 302 303 305 307 308 308 307 nan nan nan nan nan nan nan nan nan nan nan nan nan nan nan nan nan nan nan nan nan nan nan nan nan nan nan nan nan nan nan nan nan nan nan nan nan nan nan nan nan nan nan nan nan nan nan nan nan nan nan nan nan nan nan nan nan nan nan nan nan nan nan nan nan nan nan nan
301 302 303 306 303 299 296 297 296 297 300 301 300 301 302 nan nan nan nan nan nan nan nan nan nan nan nan nan nan nan nan nan nan nan nan nan nan nan nan nan nan nan nan nan nan nan nan nan nan nan nan nan nan nan nan nan nan nan nan nan nan nan nan nan nan nan nan nan nan nan nan nan nan nan nan nan nan nan nan nan nan nan nan nan nan
300 301 302 300 298 294 294 294 296 295 297 299 300 299 nan nan nan nan nan nan nan nan nan nan nan nan nan nan nan nan nan nan nan nan nan nan nan nan nan nan nan nan nan nan nan nan nan nan nan nan nan nan nan nan nan nan nan nan nan nan nan nan nan nan nan nan nan nan nan 213 nan nan nan nan nan nan nan nan nan nan nan nan nan nan nan
292 293 298 296 294 293 293 295 294 nan 296 296 295 296 nan nan nan nan nan nan nan nan nan nan nan nan nan nan nan nan nan nan nan nan nan nan nan nan nan nan nan nan nan nan nan nan nan nan nan nan nan nan nan nan nan nan nan nan nan nan nan nan nan nan nan nan nan nan nan nan nan nan nan nan nan nan nan nan 224 223 222 222 nan nan nan
292 282 279 288 292 293 293 293 295 294 nan nan nan nan nan nan nan nan nan nan nan nan nan nan nan nan nan nan nan nan nan nan nan nan nan nan nan nan nan nan nan nan nan nan nan nan nan nan nan nan nan nan nan nan nan nan nan nan nan nan nan nan nan nan nan nan nan nan nan nan nan nan nan nan nan nan nan nan nan 223 225 225 227 228 228
291 294 291 nan 294 291 292 293 nan nan nan nan nan nan nan nan nan nan nan nan nan nan nan nan nan nan nan nan nan nan nan nan nan nan nan nan nan nan nan nan nan nan nan nan nan nan nan nan nan nan nan nan nan nan nan nan nan nan nan nan nan nan nan nan nan nan nan nan nan nan nan nan nan nan nan nan nan nan nan nan 227 227 226 228 233
290 290 294 293 286 294 293 nan nan nan nan nan nan nan nan nan nan nan nan nan nan nan nan nan nan nan nan nan nan nan nan nan nan nan nan nan nan nan nan nan nan nan nan nan nan nan nan nan nan nan nan nan nan nan nan nan nan nan nan nan nan nan nan nan nan nan nan nan nan nan nan nan nan nan nan nan nan nan nan nan 235 236 243 240 nan
288 290 292 nan nan 292 nan nan nan nan nan nan nan nan nan nan nan nan nan nan nan nan nan nan nan nan nan nan nan nan nan nan nan nan nan nan nan nan nan nan nan nan nan nan nan nan nan nan nan nan nan nan nan nan nan nan nan nan nan nan nan nan nan nan nan nan nan nan nan nan nan nan nan nan nan nan nan nan nan nan nan nan nan 246 251
287 nan nan nan nan nan nan nan nan nan nan nan nan nan nan nan nan nan nan nan nan nan nan nan nan nan nan nan nan nan nan nan nan nan nan nan nan nan nan nan nan nan nan nan nan nan nan nan nan nan nan nan nan nan nan nan nan nan nan nan nan nan nan nan nan nan nan nan nan nan nan nan nan nan nan nan nan nan nan nan nan nan nan nan nan
nan nan nan nan nan nan nan nan nan nan nan nan nan nan nan nan nan nan nan nan nan nan nan nan nan nan nan nan nan nan nan nan nan nan nan nan nan nan nan nan nan nan nan nan nan nan nan nan nan nan nan nan nan nan nan nan nan nan nan nan nan nan nan nan nan nan nan nan nan nan nan nan nan nan nan nan nan nan nan nan nan nan nan nan nan
nan nan nan nan nan nan nan nan nan nan nan nan nan nan nan nan nan nan nan nan nan nan nan nan nan nan nan nan nan nan nan nan nan nan nan nan nan nan nan nan nan nan nan nan nan nan nan nan nan nan nan nan nan nan nan nan nan nan nan nan nan nan nan nan nan nan nan nan nan nan nan nan nan nan nan nan nan nan nan nan nan nan nan nan nan
nan nan nan nan nan nan nan nan nan nan nan nan nan nan nan nan nan nan nan nan nan nan nan nan nan nan nan nan nan nan nan nan nan nan nan nan nan nan nan nan nan nan nan nan nan nan nan nan nan nan nan nan nan nan nan nan nan nan nan nan nan nan nan nan nan nan nan nan nan nan nan nan nan nan nan nan nan nan nan nan nan nan nan nan nan
nan nan nan nan nan nan nan nan nan nan nan nan nan nan nan nan nan nan nan nan nan nan nan nan nan nan nan nan nan nan nan nan nan nan nan nan nan nan nan nan nan nan nan nan nan nan nan nan nan nan nan nan nan nan nan nan nan nan nan nan nan nan nan nan nan nan nan nan nan nan nan nan nan nan nan nan nan nan nan nan nan nan nan nan nan
nan nan nan nan nan nan nan nan nan nan nan nan nan nan nan nan nan nan nan nan nan nan nan nan nan nan nan nan nan nan nan nan nan nan nan nan nan nan nan nan nan nan nan nan nan nan nan nan nan nan nan nan nan nan nan nan nan nan nan nan nan nan nan nan nan nan nan nan nan nan nan nan nan nan nan nan nan nan nan nan nan nan nan nan nan
nan nan nan nan nan nan nan nan nan nan nan nan nan nan nan nan nan nan nan nan nan nan nan nan nan nan nan nan nan nan nan nan nan nan nan nan nan nan nan nan nan nan nan nan nan nan nan nan nan nan nan nan nan nan nan nan nan nan nan nan nan nan nan nan nan nan nan nan nan nan nan nan nan nan nan nan nan nan nan nan nan nan nan nan nan
nan nan nan nan nan nan nan nan nan nan nan nan nan nan nan nan nan nan nan nan nan nan nan nan nan nan nan nan nan nan nan nan nan nan nan nan nan nan nan nan nan nan nan nan nan nan nan nan nan nan nan nan nan nan nan nan nan nan nan nan nan nan nan nan nan nan nan nan nan nan nan nan nan nan nan nan nan nan nan nan nan nan nan nan nan
nan nan nan nan nan nan nan nan nan nan nan nan nan nan nan nan nan nan nan nan nan nan nan nan nan nan nan nan nan nan nan nan nan nan nan nan nan nan nan nan nan nan nan nan nan nan nan nan nan nan nan nan nan nan nan nan nan nan nan nan nan nan nan nan nan nan nan nan nan nan nan nan nan nan nan nan nan nan nan nan nan nan nan nan nan